SCP
0 0 0 0 0 0 0 -0 -0 0 0 0 -0 0 0 -0 -0 -0 0 0 0 0 0 0 0 0 0 0 0 0 0 0 0 0 0 0 0 0 0 0 0 0 0 0 0 0 0 0 0 0 0 0 0 0
0 0 0 0 0 0 0 -0 0 0 0 -0 0 0 0 0 -0 -0 0 0 0 0 0 0 0 0 0 0 0 0 0 0 0 0 0 0 0 0 0 0 0 0 0 0 0 0 0 0 0 0 0 0 0 0
0 0 0 0 0 0 0 0 0 0 0 -0 -0 0 0 -0 -0 0 0 0 0 0 0 0 0 0 0 0 0 0 0 0 0 0 0 0 0 0 0 0 0 0 0 0 0 0 0 0 0 0 0 0 0 0
0 0 0 0 0 0 0 0 0 0 0 -0 -0 -0 -0 -0 0 0 0 0 0 0 0 0 0 0 0 0 0 0 0 0 0 0 0 0 0 0 0 0 0 0 0 0 0 0 0 0 0 0 0 0 0 0
0 0 0 0 0 0 0 0 0 0 0 0 0 -0 -0 0 0 0 0 0 0 0 0 0 0 0 0 0 0 0 0 0 0 0 0 0 0 0 0 0 0 0 0 0 0 0 0 0 0 0 0 0 0 0
0 0 0 0 0 0 0 0 0 0 0 0 0 0 0 0 0 0 0 0 0 0 0 0 0 0 0 0 0 0 0 0 0 0 0 0 0 0 0 0 0 0 0 0 0 0 0 0 0 0 0 0 0 0
0 0 0 0 0 0 0 0 0 -0 -0 0 0 -0 -0 0 0 0 0 0 0 0 0 0 0 0 0 0 0 0 0 0 0 0 0 0 0 0 0 0 0 0 0 0 0 0 0 0 0 0 0 0 0 0
0 0 0 0 0 0 0 0 0 0 -0 0 0 0 -0 0 0 0 0 0 0 0 0 0 0 0 0 0 0 0 0 0 0 0 0 0 0 0 0 0 0 0 0 0 0 0 0 0 0 0 0 0 0 0
0 0 0 0 0 0 0 0 0 0 0 0 0 0 -0 0 0 0 0 0 0 0 0 0 0 0 0 0 0 0 0 0 0 0 0 0 0 0 0 0 0 0 0 0 0 0 0 0 0 0 0 0 0 0
0 0 0 0 0 0 0 0 0 0 0 0 0 0 0 0 0 0 0 0 0 0 0 0 0 0 0 0 0 0 0 0 0 0 0 0 0 0 0 0 0 0 0 0 0 0 0 0 0 0 0 0 0 0
0 0 0 0 0 0 0 0 0 0 0 0 0 0 0 0 0 0 0 0 0 0 0 0 0 0 0 0 0 0 0 0 0 0 0 0 0 0 0 0 0 0 0 0 0 0 0 0 0 0 0 0 0 0
-0 0 0 0 0 0 0 0 0 0 0 0 0 0 0 0 0 0 0 0 0 0 0 0 0 0 0 0 0 0 0 0 0 0 0 0 0 0 0 0 0 0 0 0 0 0 0 0 0 0 0 0 0 0
-0 -0 -0 0 0 0 0 0 0 0 0 0 0 0 0 0 0 0 0 0 0 0 0 0 0 0 0 0 0 0 0 0 0 0 0 0 0 0 0 0 0 0 0 0 0 0 0 0 0 0 0 0 0 0
-0 -0 -0 -0 -0 -0 -0 0 0 0 0 0 0 0 0 0 0 0 0 0 0 0 0 0 0 0 0 0 0 0 0 0 0 0 0 0 0 0 0 0 0 0 0 0 0 0 0 0 0 0 0 0 0 0
0 0 -0 -0 -0 -0 0 -0 -0 0 0 0 0 0 0 0 0 0 0 0 0 0 0 0 0 0 0 0 0 0 0 0 0 0 0 0 0 0 0 0 0 0 0 0 0 0 0 0 0 0 0 0 0 0
0 0 0 -0 0 -0 0 0 0 0 0 0 0 0 0 0 0 0 0 0 0 0 0 0 0 0 0 0 0 0 0 0 0 0 0 0 0 0 0 0 0 0 0 0 0 0 0 0 0 0 0 0 0 0
0 0 -0 -0 0 0 -0 0 0 -0 0 0 0 0 0 0 0 0 0 0 0 0 0 0 0 0 0 0 0 0 0 0 0 0 0 0 0 0 0 0 0 0 0 0 0 0 0 0 0 0 0 0 0 0
0 0 0 0 0 0 0 0 0 0 0 0 0 0 0 0 0 0 0 0 0 0 0 0 0 0 0 0 0 0 0 0 0 0 0 0 0 0 0 0 0 0 0 0 0 0 0 0 0 0 0 0 0 0
0 0 0 0 0 0 0 0 0 0 0 0 0 0 0 0 0 0 0 0 0 0 0 0 0 0 0 0 0 0 0 0 0 0 0 0 0 0 0 0 0 0 0 0 0 0 0 0 0 0 0 0 0 0
-0 0 0 0 0 0 0 0 0 0 0 0 0 0 0 0 0 0 0 0 0 0 0 0 0 0 0 0 0 0 0 0 0 0 0 0 0 0 0 0 0 0 0 0 0 0 0 0 0 0 0 0 0 0
0 0 0 0 0 0 0 0 0 0 0 0 0 0 0 0 0 0 0 0 0 0 0 0 0 0 0 0 0 0 0 0 0 0 0 0 0 0 0 0 0 0 0 0 0 0 0 0 0 0 0 0 0 0
0 0 -0 0 0 0 0 0 0 0 0 0 0 0 0 0 0 0 0 0 0 0 0 0 0 0 0 0 0 0 0 0 0 0 0 0 0 0 0 0 0 0 0 0 0 0 0 0 0 0 0 0 0 0
0 0 0 0 0 -0 0 0 0 0 0 0 0 0 0 0 0 0 0 0 0 0 0 0 0 0 0 0 0 0 0 0 0 0 0 0 0 0 0 0 0 0 0 0 0 0 0 0 0 0 0 0 0 0
0 -0 0 -0 -0 0 0 0 0 0 0 0 0 0 0 0 0 0 0 0 0 0 0 0 0 0 0 0 0 0 0 0 0 0 0 0 0 0 0 0 0 0 0 0 0 0 0 0 0 0 0 0 0 0
0 0 0 0 0 -0 -0 -0 0 0 0 0 0 0 0 0 0 0 0 0 0 0 0 0 0 0 0 0 0 0 0 0 0 0 0 0 0 0 0 0 0 0 0 0 0 0 0 0 0 0 0 0 0 0
0 0 0 0 0 0 0 0 0 0 0 0 0 0 0 0 0 0 0 0 0 0 0 0 0 0 0 0 0 0 0 0 0 0 0 0 0 0 0 0 0 0 0 0 0 0 0 0 0 0 0 0 0 0
0 0 0 0 0 0 0 0 0 0 0 0 -0 0 0 0 0 0 0 0 0 0 0 0 0 0 0 0 0 0 0 0 0 0 0 0 0 0 0 0 0 0 0 0 0 0 0 0 0 0 0 0 0 0
0 0 0 0 0 0 0 0 0 0 0 0 0 0 -0 -0 0 0 0 0 0 0 0 0 0 0 0 0 0 0 0 0 0 0 0 0 0 0 0 0 0 0 0 0 0 0 0 0 0 0 0 0 0 0
0 0 0 0 0 0 0 0 0 0 0 0 0 0 0 0 0 0 0 0 0 0 0 0 0 0 0 0 0 0 0 0 0 0 0 0 0 0 0 0 0 0 0 0 0 0 0 0 0 0 0 0 0 0
0 0 0 0 0 0 0 0 0 0 0 0 0 0 0 0 0 0 0 0 0 0 0 0 0 0 0 0 0 0 0 0 0 0 0 0 0 0 0 0 0 0 0 0 0 0 0 0 0 0 0 0 0 0
0 0 0 0 0 0 0 0 0 0 0 0 0 0 0 0 -0 0 0 0 0 0 0 0 0 0 0 0 0 0 0 0 0 0 0 0 0 0 0 0 0 0 0 0 0 0 0 0 0 0 0 0 0 0
0 0 0 0 0 0 0 0 0 0 0 0 0 0 0 0 0 0 0 0 0 0 0 0 0 -0 0 0 0 0 0 0 0 0 0 0 0 0 0 0 0 0 0 0 0 0 0 0 0 0 0 0 0 0
0 0 0 0 0 0 0 0 0 0 0 0 0 0 0 0 0 0 0 0 0 0 0 0 0 -0 0 0 0 0 0 0 0 0 0 0 0 0 0 0 0 0 0 0 0 0 0 0 0 0 0 0 0 0
Wind_Speed_500mb
22 8 15 22 12 6 1 9 10 9 10 16 29 29 24 30 37 46 55 58 69 18 49 70 53 74 65 59 28 25 22 7 2 14 10 9 8 14 9 10 35 26 25 17 5 13 33 16 25 36 17 17 23 41
12 7 3 25 17 9 2 8 5 6 9 14 23 16 18 23 40 42 47 50 56 33 21 46 53 81 95 79 61 64 7 12 18 12 6 12 7 8 12 17 3 16 26 18 25 21 3 43 12 37 32 37 29 29
4 3 15 22 14 9 6 8 4 7 6 8 13 13 16 25 27 30 39 52 29 13 21 28 39 45 74 79 79 28 20 55 19 26 12 7 10 8 11 8 10 7 4 13 8 12 14 47 25 44 28 32 34 29
7 14 21 18 13 10 10 9 4 5 5 6 11 10 12 27 37 15 36 49 24 23 7 6 28 38 39 64 82 71 65 60 47 33 8 6 8 11 8 10 7 6 22 15 4 1 8 30 51 42 52 36 32 31
9 22 21 15 14 10 9 5 5 5 7 12 15 24 31 34 28 16 18 32 44 12 9 10 30 20 42 66 63 58 88 69 37 10 6 5 6 10 2 4 6 10 13 18 15 34 14 28 65 42 47 43 38 38
16 20 18 14 14 11 8 4 5 6 4 10 14 19 27 29 34 24 4 12 32 29 17 6 12 22 35 45 59 62 67 40 19 15 8 9 4 4 9 6 2 7 11 10 8 44 22 20 55 43 43 39 41 47
11 16 15 11 9 8 6 2 4 5 4 5 11 18 25 48 31 17 11 6 23 23 15 8 4 8 25 35 29 35 36 23 16 12 6 8 4 3 3 7 5 6 12 18 31 42 21 32 28 44 40 48 51 55
7 9 13 9 6 8 6 3 1 3 11 5 9 12 23 18 14 33 50 27 27 24 18 8 3 5 12 10 8 11 13 13 24 12 9 4 5 2 5 7 11 11 13 27 27 13 22 38 42 49 55 62 67 65
5 7 8 9 4 8 6 5 5 2 1 14 6 16 14 17 17 23 19 34 44 23 7 6 4 7 7 10 12 11 11 8 6 6 4 2 3 3 4 6 10 10 4 10 21 31 43 54 66 72 73 70 74 65
7 6 9 14 7 7 8 3 5 6 5 8 19 6 2 15 26 10 6 6 19 19 15 6 5 4 7 4 5 6 9 5 5 3 4 6 6 9 12 8 6 9 15 31 49 43 58 69 76 73 73 69 65 61
5 6 11 14 6 8 8 3 5 5 9 11 10 8 17 23 11 8 7 9 10 8 14 9 17 4 14 6 7 10 5 2 6 4 3 4 5 5 8 11 13 16 24 24 35 54 59 75 74 73 69 63 56 48
35 20 11 14 7 6 7 2 5 10 6 9 7 11 16 21 15 13 6 7 13 6 12 6 8 11 13 13 8 9 6 2 7 2 4 8 4 11 14 22 26 33 43 49 54 68 71 68 62 59 55 48 40 34
49 31 21 19 14 13 7 3 6 10 12 13 9 9 18 16 20 14 14 7 6 14 19 16 8 10 16 19 8 7 9 6 2 5 5 5 13 19 22 28 37 44 54 62 65 63 62 60 55 51 50 46 42 38
46 52 31 29 26 13 8 5 5 17 11 14 16 17 10 10 8 5 5 5 8 11 25 19 6 9 13 9 5 10 2 1 5 3 4 5 15 21 21 28 41 46 50 54 55 54 55 52 51 50 47 46 41 36
27 35 38 48 33 28 15 7 10 12 13 15 14 10 10 3 4 8 10 10 18 22 15 2 9 8 8 9 6 6 5 6 5 3 5 14 23 25 27 32 39 44 47 50 51 51 53 53 50 48 43 38 32 26
25 33 42 41 38 23 15 14 9 20 16 15 23 6 13 1 5 10 18 12 33 26 6 3 5 8 9 3 6 6 4 3 4 4 15 24 27 29 31 33 39 43 44 46 44 43 43 42 39 34 30 24 19 14
42 44 37 30 29 25 8 20 18 22 17 14 10 18 9 2 6 12 22 33 40 17 6 5 11 7 2 7 7 8 5 4 8 16 23 30 34 35 35 37 38 38 37 38 36 34 31 29 24 19 13 9 4 2
51 42 32 21 14 26 41 27 18 19 18 22 8 13 12 18 13 21 33 43 31 16 11 6 9 11 7 6 3 3 6 14 19 24 30 32 32 33 32 32 31 29 28 27 25 23 20 17 12 8 3 2 6 11
38 37 28 18 23 11 15 20 18 12 14 7 9 17 11 10 22 30 42 28 25 23 9 9 12 6 5 3 4 8 18 12 17 22 27 28 28 27 25 22 21 19 18 16 14 11 8 5 2 3 6 9 13 16
32 24 27 24 17 13 14 17 15 16 8 9 13 16 9 9 20 24 42 37 27 14 18 11 5 3 4 9 13 16 19 23 25 24 20 19 18 17 16 15 13 11 9 6 3 1 4 6 9 11 14 14 16 20
27 29 32 34 43 32 18 13 17 13 8 9 10 13 9 15 19 33 39 38 24 16 6 12 11 13 14 16 18 20 22 21 16 12 14 16 14 11 8 6 3 1 3 5 7 9 10 11 13 15 17 20 22 24
36 37 33 34 21 16 21 26 11 8 7 8 11 15 15 10 19 26 28 30 14 13 8 9 10 12 12 14 15 16 15 14 12 12 11 13 10 8 7 7 8 8 10 11 13 15 16 17 18 21 23 25 27 29
26 28 23 28 16 20 9 16 9 15 7 9 9 9 9 12 21 21 12 10 9 11 10 9 9 7 7 7 8 9 10 9 8 7 7 7 8 8 9 11 13 15 17 20 20 21 23 26 27 28 30 31 32 33
33 20 22 20 29 7 11 17 13 12 11 10 8 7 9 14 27 11 5 5 6 6 7 8 8 8 6 5 5 4 2 2 2 3 5 7 9 11 12 14 15 17 20 22 23 24 26 29 31 31 33 35 37 40
14 32 21 17 24 14 15 12 13 11 7 6 5 7 8 16 6 6 1 2 2 3 4 4 4 5 6 6 4 2 1 1 3 4 5 7 8 11 13 15 18 19 22 22 23 25 26 30 31 34 35 36 36 37
17 25 16 10 12 10 4 8 8 7 4 10 4 10 10 5 7 2 5 5 3 3 3 4 4 4 3 2 1 2 4 5 5 7 10 11 12 14 15 17 18 19 22 23 23 24 25 27 28 31 32 32 36 41
12 8 13 17 9 6 8 6 5 4 6 4 5 9 6 7 5 7 3 5 4 3 4 4 3 2 1 1 2 4 6 8 10 10 12 15 18 21 23 22 18 22 21 21 22 24 26 28 31 34 37 38 39 43
8 12 3 10 6 6 7 2 3 1 4 1 1 3 7 12 8 3 4 4 5 6 5 3 1 2 3 5 7 7 9 10 13 16 17 19 17 18 21 20 19 22 23 25 27 29 31 33 36 39 43 46 46 44
6 13 7 6 2 1 3 6 6 3 1 3 5 6 7 9 8 10 12 11 12 13 14 9 5 7 9 10 13 15 19 21 23 25 25 23 21 22 23 23 26 27 30 33 35 37 39 43 45 48 51 54 54 54
6 13 3 1 3 4 4 4 4 8 16 17 14 14 19 29 18 20 23 23 19 17 23 24 19 19 19 21 20 22 25 25 25 29 31 28 27 29 29 30 32 35 40 44 45 45 46 50 52 55 59 63 63 63
7 6 4 4 6 4 7 17 27 26 18 15 25 30 27 22 24 22 27 25 25 25 24 22 21 20 20 19 20 20 19 21 24 26 29 32 33 33 34 36 39 43 47 51 53 55 56 58 59 62 63 64 62 62
6 3 4 3 4 9 16 8 10 6 6 6 8 9 9 11 13 10 14 25 22 20 15 15 12 3 11 12 15 19 22 25 28 31 36 41 42 43 45 47 49 52 55 59 61 64 65 67 70 70 70 69 67 66
7 6 7 8 6 4 7 15 4 7 9 7 7 7 9 10 15 11 18 29 24 20 19 15 10 10 16 19 23 26 28 31 33 38 42 46 49 52 55 57 58 61 64 68 70 71 73 73 74 73 71 70 70 70
Wind_Direction_500mb
15 73 149 157 166 171 356 167 185 237 281 273 278 272 252 252 248 248 260 232 204 245 174 192 181 178 165 163 167 161 142 225 44 150 152 164 139 188 122 149 176 170 166 197 163 208 249 153 147 176 176 160 163 190
340 351 173 165 169 192 173 192 203 295 304 316 302 301 273 260 266 259 232 215 209 235 160 179 178 183 179 167 167 175 189 157 165 140 106 115 127 159 141 170 310 193 198 172 196 204 197 178 151 193 173 183 185 188
277 119 134 165 176 207 223 218 269 317 310 305 328 316 303 344 303 231 206 178 178 140 110 144 159 161 181 185 174 162 188 179 157 147 142 138 136 154 157 184 122 229 156 190 132 194 176 189 205 201 188 201 207 202
200 133 150 153 175 207 224 227 317 343 318 304 339 328 313 326 6 196 189 176 165 127 100 39 154 172 179 182 178 189 183 177 154 154 96 120 121 209 180 135 177 174 147 157 188 38 120 204 204 203 204 203 198 197
157 107 92 157 172 182 195 219 10 358 300 307 305 319 326 320 331 354 84 163 170 144 134 119 110 113 167 178 179 192 185 168 141 97 75 111 115 132 60 95 177 193 158 186 213 174 167 200 201 199 199 199 195 190
155 136 125 127 147 162 164 176 331 310 22 3 354 343 322 313 285 283 259 132 156 138 112 97 77 82 130 160 181 164 161 153 113 94 104 102 123 204 138 162 10 145 155 149 137 170 166 167 199 195 187 183 179 177
153 154 141 132 131 137 156 123 342 351 170 77 59 16 34 58 83 64 17 337 137 115 82 89 68 44 114 132 116 113 137 105 112 107 76 110 167 109 102 138 96 109 150 122 132 149 125 153 173 186 182 171 169 161
123 156 162 134 108 126 136 151 31 325 172 125 79 30 346 18 27 32 44 76 102 83 83 110 115 92 47 80 79 59 79 67 36 86 75 109 125 222 107 84 57 78 131 151 159 166 186 168 163 165 169 163 156 149
116 119 161 158 87 133 144 173 243 93 163 213 243 325 325 336 8 355 36 50 58 77 97 59 118 131 57 71 88 71 77 74 73 83 123 187 210 110 52 50 60 58 99 143 152 144 148 157 156 157 160 156 150 142
139 140 159 162 126 110 121 170 282 314 251 274 328 317 305 322 318 341 66 33 35 39 50 62 333 81 66 98 87 104 55 85 87 59 97 61 74 79 41 53 78 111 141 152 141 126 150 146 152 149 146 143 142 138
127 132 142 158 114 100 128 342 321 322 332 325 350 344 328 330 344 40 60 41 349 55 26 7 21 81 39 85 100 44 96 62 95 132 173 113 111 86 61 85 94 117 139 165 166 153 154 148 141 138 134 134 133 131
56 73 133 147 114 146 164 302 325 348 26 42 10 344 342 14 17 64 39 4 31 44 2 10 356 25 45 67 77 38 88 76 96 317 108 126 89 100 106 99 104 118 129 132 137 135 132 130 128 125 123 124 127 134
54 60 112 106 146 191 168 74 60 82 355 7 17 40 8 349 38 30 8 25 27 345 356 352 37 45 45 61 62 61 63 57 233 39 65 56 117 112 116 117 115 118 124 128 129 128 130 127 127 129 130 132 135 138
45 43 55 72 139 162 177 155 119 5 22 36 28 23 36 14 46 3 339 315 325 315 345 349 25 44 20 58 22 75 38 252 73 84 83 118 123 118 125 126 120 117 120 123 121 125 126 129 129 130 134 134 134 135
48 58 51 61 86 116 83 127 37 31 52 60 33 44 46 333 302 314 306 310 347 333 351 341 80 73 30 71 33 113 78 70 25 82 77 118 126 125 122 122 118 117 119 119 122 124 125 127 128 128 127 128 131 132
54 63 54 36 40 70 82 56 71 56 58 59 45 59 357 328 21 2 352 340 352 346 342 37 90 75 62 73 74 42 108 71 119 69 102 124 123 123 126 127 122 122 124 124 124 125 127 128 128 127 128 127 128 131
44 43 37 40 35 29 59 68 49 51 51 47 53 34 37 2 299 335 349 345 350 350 37 24 49 43 313 54 51 14 49 55 97 114 117 128 132 130 129 127 126 127 127 128 127 124 122 120 119 119 119 115 103 349
37 26 22 27 35 52 59 46 68 61 61 39 55 4 39 37 352 12 5 5 15 26 15 67 105 44 40 68 55 69 87 115 115 119 121 124 125 125 127 126 125 126 127 125 123 122 123 125 127 124 110 334 310 311
24 14 15 27 21 52 49 42 45 89 63 50 28 17 22 22 28 21 17 19 39 49 57 45 58 53 72 35 67 112 132 126 131 125 119 118 117 118 120 120 118 118 120 121 120 121 123 134 180 275 291 298 302 309
25 23 37 39 23 67 66 41 48 75 66 32 26 16 28 7 4 5 20 30 47 52 38 41 53 77 95 110 123 127 131 128 131 129 136 140 135 128 123 120 121 120 121 123 125 287 272 270 281 291 300 308 312 309
40 52 53 65 57 59 71 42 51 62 73 72 9 17 9 15 20 18 11 15 55 42 66 59 76 89 102 107 111 122 131 141 145 146 155 164 164 163 156 156 161 211 263 284 290 289 296 296 303 308 307 306 307 307
37 48 48 43 59 66 61 35 64 48 48 45 27 21 33 19 4 7 357 40 55 33 55 92 86 88 98 108 115 124 130 137 137 137 138 150 167 190 215 239 262 275 277 277 277 281 286 289 291 292 293 295 297 298
35 40 43 32 64 46 32 21 49 25 58 3 12 32 13 2 359 359 67 52 65 45 65 76 84 87 95 103 110 119 129 136 148 161 176 197 218 235 249 260 268 274 278 281 283 283 283 285 285 287 288 289 290 292
43 43 32 37 29 21 5 28 33 33 48 27 22 22 353 329 344 49 58 9 39 59 73 78 80 85 97 109 128 134 136 182 213 250 259 269 274 276 274 275 274 273 274 277 281 280 281 282 284 285 287 290 293 294
56 11 24 4 17 25 27 9 358 27 44 337 36 8 348 342 34 48 150 245 165 129 109 101 91 81 85 91 104 105 121 242 257 271 275 275 275 279 279 280 282 283 286 287 283 282 284 284 286 288 291 292 294 295
64 13 35 344 358 45 345 32 21 1 6 12 356 319 343 27 46 291 242 181 177 168 150 135 124 116 122 151 240 285 292 294 300 299 297 297 298 297 296 294 291 290 292 288 285 282 280 283 286 288 290 292 295 297
53 343 16 26 21 39 64 75 69 79 51 17 297 353 29 44 282 260 236 209 210 195 169 148 132 123 121 348 325 316 311 311 311 307 302 301 299 296 295 295 295 289 289 289 289 288 287 287 288 290 291 291 293 294
89 31 89 342 22 40 128 69 48 42 258 215 345 337 165 192 232 225 238 266 249 228 205 184 163 328 309 304 311 309 308 306 303 303 302 303 297 298 295 292 288 285 287 286 287 289 292 292 293 293 294 295 297 298
40 4 11 18 5 237 212 165 208 193 305 210 165 259 253 247 244 277 274 264 251 233 216 214 259 314 310 307 303 298 297 295 299 304 306 303 297 297 298 293 291 291 291 290 291 294 294 294 295 296 296 296 298 298
356 352 351 35 110 247 207 221 234 265 285 255 260 276 278 276 279 263 253 246 249 241 233 241 263 283 292 294 291 287 288 287 285 289 294 296 296 297 298 296 293 291 289 289 290 290 290 292 294 294 296 297 299 299
333 341 317 266 252 250 264 287 292 286 271 255 247 250 263 292 292 271 244 233 228 233 239 247 260 273 284 288 290 293 295 288 290 290 292 295 295 295 295 294 292 289 287 286 287 287 289 288 288 289 289 291 292 291
310 299 325 297 283 295 312 320 303 281 269 257 251 247 271 274 271 252 222 207 213 222 220 210 200 218 321 313 305 304 304 299 297 297 294 295 296 297 296 293 291 289 286 285 285 285 286 287 288 289 290 290 292 291
296 286 278 289 295 285 323 332 294 302 255 257 250 253 246 254 254 244 228 207 204 207 198 196 214 314 326 322 317 316 313 309 304 301 300 298 297 296 294 291 290 288 287 287 287 287 286 285 285 286 287 288 290 291
Wind_Speed_850mb
22 8 15 22 12 6 1 9 10 9 10 16 29 29 24 30 37 46 55 58 69 18 49 70 53 74 65 59 28 25 22 7 2 14 10 9 8 14 9 10 35 26 25 17 5 13 33 16 25 36 17 17 23 41
12 7 3 25 17 9 2 8 5 6 9 14 23 16 18 23 40 42 47 50 56 33 21 46 53 81 95 79 61 64 7 12 18 12 6 12 7 8 12 17 3 16 26 18 25 21 3 43 12 37 32 37 29 29
4 3 15 22 14 9 6 8 4 7 6 8 13 13 16 25 27 30 39 52 29 13 21 28 39 45 74 79 79 28 20 55 19 26 12 7 10 8 11 8 10 7 4 13 8 12 14 47 25 44 28 32 34 29
7 14 21 18 13 10 10 9 4 5 5 6 11 10 12 27 37 15 36 49 24 23 7 6 28 38 39 64 82 71 65 60 47 33 8 6 8 11 8 10 7 6 22 15 4 1 8 30 51 42 52 36 32 31
9 22 21 15 14 10 9 5 5 5 7 12 15 24 31 34 28 16 18 32 44 12 9 10 30 20 42 66 63 58 88 69 37 10 6 5 6 10 2 4 6 10 13 18 15 34 14 28 65 42 47 43 38 38
16 20 18 14 14 11 8 4 5 6 4 10 14 19 27 29 34 24 4 12 32 29 17 6 12 22 35 45 59 62 67 40 19 15 8 9 4 4 9 6 2 7 11 10 8 44 22 20 55 43 43 39 41 47
11 16 15 11 9 8 6 2 4 5 4 5 11 18 25 48 31 17 11 6 23 23 15 8 4 8 25 35 29 35 36 23 16 12 6 8 4 3 3 7 5 6 12 18 31 42 21 32 28 44 40 48 51 55
7 9 13 9 6 8 6 3 1 3 11 5 9 12 23 18 14 33 50 27 27 24 18 8 3 5 12 10 8 11 13 13 24 12 9 4 5 2 5 7 11 11 13 27 27 13 22 38 42 49 55 62 67 65
5 7 8 9 4 8 6 5 5 2 1 14 6 16 14 17 17 23 19 34 44 23 7 6 4 7 7 10 12 11 11 8 6 6 4 2 3 3 4 6 10 10 4 10 21 31 43 54 66 72 73 70 74 65
7 6 9 14 7 7 8 3 5 6 5 8 19 6 2 15 26 10 6 6 19 19 15 6 5 4 7 4 5 6 9 5 5 3 4 6 6 9 12 8 6 9 15 31 49 43 58 69 76 73 73 69 65 61
5 6 11 14 6 8 8 3 5 5 9 11 10 8 17 23 11 8 7 9 10 8 14 9 17 4 14 6 7 10 5 2 6 4 3 4 5 5 8 11 13 16 24 24 35 54 59 75 74 73 69 63 56 48
35 20 11 14 7 6 7 2 5 10 6 9 7 11 16 21 15 13 6 7 13 6 12 6 8 11 13 13 8 9 6 2 7 2 4 8 4 11 14 22 26 33 43 49 54 68 71 68 62 59 55 48 40 34
49 31 21 19 14 13 7 3 6 10 12 13 9 9 18 16 20 14 14 7 6 14 19 16 8 10 16 19 8 7 9 6 2 5 5 5 13 19 22 28 37 44 54 62 65 63 62 60 55 51 50 46 42 38
46 52 31 29 26 13 8 5 5 17 11 14 16 17 10 10 8 5 5 5 8 11 25 19 6 9 13 9 5 10 2 1 5 3 4 5 15 21 21 28 41 46 50 54 55 54 55 52 51 50 47 46 41 36
27 35 38 48 33 28 15 7 10 12 13 15 14 10 10 3 4 8 10 10 18 22 15 2 9 8 8 9 6 6 5 6 5 3 5 14 23 25 27 32 39 44 47 50 51 51 53 53 50 48 43 38 32 26
25 33 42 41 38 23 15 14 9 20 16 15 23 6 13 1 5 10 18 12 33 26 6 3 5 8 9 3 6 6 4 3 4 4 15 24 27 29 31 33 39 43 44 46 44 43 43 42 39 34 30 24 19 14
42 44 37 30 29 25 8 20 18 22 17 14 10 18 9 2 6 12 22 33 40 17 6 5 11 7 2 7 7 8 5 4 8 16 23 30 34 35 35 37 38 38 37 38 36 34 31 29 24 19 13 9 4 2
51 42 32 21 14 26 41 27 18 19 18 22 8 13 12 18 13 21 33 43 31 16 11 6 9 11 7 6 3 3 6 14 19 24 30 32 32 33 32 32 31 29 28 27 25 23 20 17 12 8 3 2 6 11
38 37 28 18 23 11 15 20 18 12 14 7 9 17 11 10 22 30 42 28 25 23 9 9 12 6 5 3 4 8 18 12 17 22 27 28 28 27 25 22 21 19 18 16 14 11 8 5 2 3 6 9 13 16
32 24 27 24 17 13 14 17 15 16 8 9 13 16 9 9 20 24 42 37 27 14 18 11 5 3 4 9 13 16 19 23 25 24 20 19 18 17 16 15 13 11 9 6 3 1 4 6 9 11 14 14 16 20
27 29 32 34 43 32 18 13 17 13 8 9 10 13 9 15 19 33 39 38 24 16 6 12 11 13 14 16 18 20 22 21 16 12 14 16 14 11 8 6 3 1 3 5 7 9 10 11 13 15 17 20 22 24
36 37 33 34 21 16 21 26 11 8 7 8 11 15 15 10 19 26 28 30 14 13 8 9 10 12 12 14 15 16 15 14 12 12 11 13 10 8 7 7 8 8 10 11 13 15 16 17 18 21 23 25 27 29
26 28 23 28 16 20 9 16 9 15 7 9 9 9 9 12 21 21 12 10 9 11 10 9 9 7 7 7 8 9 10 9 8 7 7 7 8 8 9 11 13 15 17 20 20 21 23 26 27 28 30 31 32 33
33 20 22 20 29 7 11 17 13 12 11 10 8 7 9 14 27 11 5 5 6 6 7 8 8 8 6 5 5 4 2 2 2 3 5 7 9 11 12 14 15 17 20 22 23 24 26 29 31 31 33 35 37 40
14 32 21 17 24 14 15 12 13 11 7 6 5 7 8 16 6 6 1 2 2 3 4 4 4 5 6 6 4 2 1 1 3 4 5 7 8 11 13 15 18 19 22 22 23 25 26 30 31 34 35 36 36 37
17 25 16 10 12 10 4 8 8 7 4 10 4 10 10 5 7 2 5 5 3 3 3 4 4 4 3 2 1 2 4 5 5 7 10 11 12 14 15 17 18 19 22 23 23 24 25 27 28 31 32 32 36 41
12 8 13 17 9 6 8 6 5 4 6 4 5 9 6 7 5 7 3 5 4 3 4 4 3 2 1 1 2 4 6 8 10 10 12 15 18 21 23 22 18 22 21 21 22 24 26 28 31 34 37 38 39 43
8 12 3 10 6 6 7 2 3 1 4 1 1 3 7 12 8 3 4 4 5 6 5 3 1 2 3 5 7 7 9 10 13 16 17 19 17 18 21 20 19 22 23 25 27 29 31 33 36 39 43 46 46 44
6 13 7 6 2 1 3 6 6 3 1 3 5 6 7 9 8 10 12 11 12 13 14 9 5 7 9 10 13 15 19 21 23 25 25 23 21 22 23 23 26 27 30 33 35 37 39 43 45 48 51 54 54 54
6 13 3 1 3 4 4 4 4 8 16 17 14 14 19 29 18 20 23 23 19 17 23 24 19 19 19 21 20 22 25 25 25 29 31 28 27 29 29 30 32 35 40 44 45 45 46 50 52 55 59 63 63 63
7 6 4 4 6 4 7 17 27 26 18 15 25 30 27 22 24 22 27 25 25 25 24 22 21 20 20 19 20 20 19 21 24 26 29 32 33 33 34 36 39 43 47 51 53 55 56 58 59 62 63 64 62 62
6 3 4 3 4 9 16 8 10 6 6 6 8 9 9 11 13 10 14 25 22 20 15 15 12 3 11 12 15 19 22 25 28 31 36 41 42 43 45 47 49 52 55 59 61 64 65 67 70 70 70 69 67 66
7 6 7 8 6 4 7 15 4 7 9 7 7 7 9 10 15 11 18 29 24 20 19 15 10 10 16 19 23 26 28 31 33 38 42 46 49 52 55 57 58 61 64 68 70 71 73 73 74 73 71 70 70 70
Wind_Direction_850mb
15 73 149 157 166 171 356 167 185 237 281 273 278 272 252 252 248 248 260 232 204 245 174 192 181 178 165 163 167 161 142 225 44 150 152 164 139 188 122 149 176 170 166 197 163 208 249 153 147 176 176 160 163 190
340 351 173 165 169 192 173 192 203 295 304 316 302 301 273 260 266 259 232 215 209 235 160 179 178 183 179 167 167 175 189 157 165 140 106 115 127 159 141 170 310 193 198 172 196 204 197 178 151 193 173 183 185 188
277 119 134 165 176 207 223 218 269 317 310 305 328 316 303 344 303 231 206 178 178 140 110 144 159 161 181 185 174 162 188 179 157 147 142 138 136 154 157 184 122 229 156 190 132 194 176 189 205 201 188 201 207 202
200 133 150 153 175 207 224 227 317 343 318 304 339 328 313 326 6 196 189 176 165 127 100 39 154 172 179 182 178 189 183 177 154 154 96 120 121 209 180 135 177 174 147 157 188 38 120 204 204 203 204 203 198 197
157 107 92 157 172 182 195 219 10 358 300 307 305 319 326 320 331 354 84 163 170 144 134 119 110 113 167 178 179 192 185 168 141 97 75 111 115 132 60 95 177 193 158 186 213 174 167 200 201 199 199 199 195 190
155 136 125 127 147 162 164 176 331 310 22 3 354 343 322 313 285 283 259 132 156 138 112 97 77 82 130 160 181 164 161 153 113 94 104 102 123 204 138 162 10 145 155 149 137 170 166 167 199 195 187 183 179 177
153 154 141 132 131 137 156 123 342 351 170 77 59 16 34 58 83 64 17 337 137 115 82 89 68 44 114 132 116 113 137 105 112 107 76 110 167 109 102 138 96 109 150 122 132 149 125 153 173 186 182 171 169 161
123 156 162 134 108 126 136 151 31 325 172 125 79 30 346 18 27 32 44 76 102 83 83 110 115 92 47 80 79 59 79 67 36 86 75 109 125 222 107 84 57 78 131 151 159 166 186 168 163 165 169 163 156 149
116 119 161 158 87 133 144 173 243 93 163 213 243 325 325 336 8 355 36 50 58 77 97 59 118 131 57 71 88 71 77 74 73 83 123 187 210 110 52 50 60 58 99 143 152 144 148 157 156 157 160 156 150 142
139 140 159 162 126 110 121 170 282 314 251 274 328 317 305 322 318 341 66 33 35 39 50 62 333 81 66 98 87 104 55 85 87 59 97 61 74 79 41 53 78 111 141 152 141 126 150 146 152 149 146 143 142 138
127 132 142 158 114 100 128 342 321 322 332 325 350 344 328 330 344 40 60 41 349 55 26 7 21 81 39 85 100 44 96 62 95 132 173 113 111 86 61 85 94 117 139 165 166 153 154 148 141 138 134 134 133 131
56 73 133 147 114 146 164 302 325 348 26 42 10 344 342 14 17 64 39 4 31 44 2 10 356 25 45 67 77 38 88 76 96 317 108 126 89 100 106 99 104 118 129 132 137 135 132 130 128 125 123 124 127 134
54 60 112 106 146 191 168 74 60 82 355 7 17 40 8 349 38 30 8 25 27 345 356 352 37 45 45 61 62 61 63 57 233 39 65 56 117 112 116 117 115 118 124 128 129 128 130 127 127 129 130 132 135 138
45 43 55 72 139 162 177 155 119 5 22 36 28 23 36 14 46 3 339 315 325 315 345 349 25 44 20 58 22 75 38 252 73 84 83 118 123 118 125 126 120 117 120 123 121 125 126 129 129 130 134 134 134 135
48 58 51 61 86 116 83 127 37 31 52 60 33 44 46 333 302 314 306 310 347 333 351 341 80 73 30 71 33 113 78 70 25 82 77 118 126 125 122 122 118 117 119 119 122 124 125 127 128 128 127 128 131 132
54 63 54 36 40 70 82 56 71 56 58 59 45 59 357 328 21 2 352 340 352 346 342 37 90 75 62 73 74 42 108 71 119 69 102 124 123 123 126 127 122 122 124 124 124 125 127 128 128 127 128 127 128 131
44 43 37 40 35 29 59 68 49 51 51 47 53 34 37 2 299 335 349 345 350 350 37 24 49 43 313 54 51 14 49 55 97 114 117 128 132 130 129 127 126 127 127 128 127 124 122 120 119 119 119 115 103 349
37 26 22 27 35 52 59 46 68 61 61 39 55 4 39 37 352 12 5 5 15 26 15 67 105 44 40 68 55 69 87 115 115 119 121 124 125 125 127 126 125 126 127 125 123 122 123 125 127 124 110 334 310 311
24 14 15 27 21 52 49 42 45 89 63 50 28 17 22 22 28 21 17 19 39 49 57 45 58 53 72 35 67 112 132 126 131 125 119 118 117 118 120 120 118 118 120 121 120 121 123 134 180 275 291 298 302 309
25 23 37 39 23 67 66 41 48 75 66 32 26 16 28 7 4 5 20 30 47 52 38 41 53 77 95 110 123 127 131 128 131 129 136 140 135 128 123 120 121 120 121 123 125 287 272 270 281 291 300 308 312 309
40 52 53 65 57 59 71 42 51 62 73 72 9 17 9 15 20 18 11 15 55 42 66 59 76 89 102 107 111 122 131 141 145 146 155 164 164 163 156 156 161 211 263 284 290 289 296 296 303 308 307 306 307 307
37 48 48 43 59 66 61 35 64 48 48 45 27 21 33 19 4 7 357 40 55 33 55 92 86 88 98 108 115 124 130 137 137 137 138 150 167 190 215 239 262 275 277 277 277 281 286 289 291 292 293 295 297 298
35 40 43 32 64 46 32 21 49 25 58 3 12 32 13 2 359 359 67 52 65 45 65 76 84 87 95 103 110 119 129 136 148 161 176 197 218 235 249 260 268 274 278 281 283 283 283 285 285 287 288 289 290 292
43 43 32 37 29 21 5 28 33 33 48 27 22 22 353 329 344 49 58 9 39 59 73 78 80 85 97 109 128 134 136 182 213 250 259 269 274 276 274 275 274 273 274 277 281 280 281 282 284 285 287 290 293 294
56 11 24 4 17 25 27 9 358 27 44 337 36 8 348 342 34 48 150 245 165 129 109 101 91 81 85 91 104 105 121 242 257 271 275 275 275 279 279 280 282 283 286 287 283 282 284 284 286 288 291 292 294 295
64 13 35 344 358 45 345 32 21 1 6 12 356 319 343 27 46 291 242 181 177 168 150 135 124 116 122 151 240 285 292 294 300 299 297 297 298 297 296 294 291 290 292 288 285 282 280 283 286 288 290 292 295 297
53 343 16 26 21 39 64 75 69 79 51 17 297 353 29 44 282 260 236 209 210 195 169 148 132 123 121 348 325 316 311 311 311 307 302 301 299 296 295 295 295 289 289 289 289 288 287 287 288 290 291 291 293 294
89 31 89 342 22 40 128 69 48 42 258 215 345 337 165 192 232 225 238 266 249 228 205 184 163 328 309 304 311 309 308 306 303 303 302 303 297 298 295 292 288 285 287 286 287 289 292 292 293 293 294 295 297 298
40 4 11 18 5 237 212 165 208 193 305 210 165 259 253 247 244 277 274 264 251 233 216 214 259 314 310 307 303 298 297 295 299 304 306 303 297 297 298 293 291 291 291 290 291 294 294 294 295 296 296 296 298 298
356 352 351 35 110 247 207 221 234 265 285 255 260 276 278 276 279 263 253 246 249 241 233 241 263 283 292 294 291 287 288 287 285 289 294 296 296 297 298 296 293 291 289 289 290 290 290 292 294 294 296 297 299 299
333 341 317 266 252 250 264 287 292 286 271 255 247 250 263 292 292 271 244 233 228 233 239 247 260 273 284 288 290 293 295 288 290 290 292 295 295 295 295 294 292 289 287 286 287 287 289 288 288 289 289 291 292 291
310 299 325 297 283 295 312 320 303 281 269 257 251 247 271 274 271 252 222 207 213 222 220 210 200 218 321 313 305 304 304 299 297 297 294 295 296 297 296 293 291 289 286 285 285 285 286 287 288 289 290 290 292 291
296 286 278 289 295 285 323 332 294 302 255 257 250 253 246 254 254 244 228 207 204 207 198 196 214 314 326 322 317 316 313 309 304 301 300 298 297 296 294 291 290 288 287 287 287 287 286 285 285 286 287 288 290 291